Location: B?lite?ti
(46.2833°N, 22.7333°E)
Time: 03:31:05
(UTC+00:00)

IRS-1C Rocket - Pass Details

Date: 24 January 2021
Orbit: 801 x 805 km, 99.0° (Epoch: 26 February)

Event Time Altitude Azimuth Distance (km) Brightness Sun altitude
Rises 16:04:28 0° 141° (SE) 3,300 7.1 -7.5°
Reaches altitude 10° 16:06:54 10° 134° (SE) 2,373 6.3 -7.9°
Maximum altitude 16:11:45 40° 66° (ENE) 1,168 4.5 -8.7°
Drops below altitude 10° 16:16:39 10° 359° (N) 2,388 6.4 -9.5°
Sets 16:19:06 0° 352° (N) 3,323 7.2 -9.9°
